This is the latest recevied weather packets stored in our database for station/object W1REE. If no packets are shown the sender has not sent any weather packets the latest 10 day(s).
| Time | Temp. | Humidity | Pressure | Rain* | Wind** | Luminosity | Snow |
|---|---|---|---|---|---|---|---|
| 1777413800 | 12.78° C | 44% | 1017.5 hPa | 0 mm | - | 153 W/m² | - |
| 1777413495 | 12.78° C | 43% | 1017.6 hPa | 0 mm | - | 130 W/m² | - |
| 1777413191 | 13.33° C | 44% | 1017.4 hPa | 0 mm | - | 106 W/m² | - |
| 1777412887 | 13.33° C | 42% | 1017.5 hPa | 0 mm | - | 129 W/m² | - |
| 1777412581 | 14.44° C | 37% | 1017.4 hPa | 0 mm | - | 144 W/m² | - |
| 1777412278 | 14.44° C | 34% | 1017.4 hPa | 0 mm | - | 227 W/m² | - |
| 1777411974 | 15° C | 36% | 1017.2 hPa | 0 mm | - | 218 W/m² | - |
| 1777411673 | 15° C | 37% | 1017.2 hPa | 0 mm | - | 258 W/m² | - |
| 1777411369 | 14.44° C | 37% | 1017.4 hPa | 0 mm | - | 305 W/m² | - |
| 1777411068 | 14.44° C | 35% | 1017.2 hPa | 0 mm | - | 232 W/m² | - |
| 1777410763 | 14.44° C | 38% | 1017.2 hPa | 0 mm | - | 218 W/m² | - |
| 1777410462 | 14.44° C | 37% | 1017.1 hPa | 0 mm | - | 205 W/m² | - |
| 1777410162 | 13.89° C | 37% | 1017.1 hPa | 0 mm | - | 267 W/m² | - |
| 1777409857 | 14.44° C | 39% | 1017.2 hPa | 0 mm | - | 225 W/m² | - |
| 1777409553 | 14.44° C | 38% | 1017.2 hPa | 0 mm | - | 213 W/m² | - |
| 1777409248 | 14.44° C | 37% | 1017.1 hPa | 0 mm | - | 276 W/m² | - |
| 1777408944 | 15.56° C | 35% | 1017.2 hPa | 0 mm | - | 301 W/m² | - |
| 1777408641 | 15° C | 36% | 1017.2 hPa | 0 mm | - | 636 W/m² | - |
| 1777408337 | 14.44° C | 40% | 1017 hPa | 0 mm | - | 728 W/m² | - |
| 1777408036 | 15° C | 37% | 1017 hPa | 0 mm | - | 344 W/m² | - |
| 1777407733 | 15.56° C | 36% | 1017 hPa | 0 mm | - | 517 W/m² | - |
| 1777407434 | 15.56° C | 37% | 1017.1 hPa | 0 mm | - | 295 W/m² | - |
| 1777407129 | 16.11° C | 37% | 1017 hPa | 0 mm | - | 308 W/m² | - |
| 1777406824 | 15.56° C | 38% | 1017 hPa | 0 mm | - | 1121 W/m² | - |
| 1777406519 | 15.56° C | 38% | 1017.1 hPa | 0 mm | - | 956 W/m² | - |
* Rain latest hour (hover to see other rain measurements)
** Current wind speed in m/s (hover to see current wind gust speed)